星链-3614 (STARLINK-3614 )

导读

STARLINK-3614是美国太空探索技术公司SpaceX星链星座的成员,2022年2月25日发射升空,作为星链计划低轨互联网星座的组网卫星,该卫星部署在近地轨道,主要承担全球宽带互联网接入服务的组网任务,为全球偏远地区、海洋船舶等提供高速网络连接,延续星链星座持续扩容的组网进程,目前仍在轨正常运行,服务全球覆盖网络的搭建。

基本信息
目录编号:
51771
目录名称:
STARLINK-3614
国际标识:
2022-017D
轨道中心:
EARTH
卫星名称:
星链-3614
卫星全名:
星链-3614 (STARLINK-3614 )
卫星状态:
在轨 (已飞行1652 天)
发射日期:
2022-02-25 UTC
国别 :
美国 (US)
星等 :
--
轨道信息
数据来源 国际轨道数据 AOE轨道数据
星历时间 2026-09-03T14:12:38+0800
1天前
查看轨道信息
2026-09-04T00:00:00+0800
15小时前
查看轨道信息
半长轴 6837.88km 6837.838km
偏心率 0.0001071 0.0001079
轨道倾角 53.159° 53.157°
近地点辐角 73.444° 64.019°
升交点赤经 252.225° 250.317°
平近点角 286.668° 31.985°
近地点 459.01km 458.963km
远地点 460.476km 460.439km
周期 93.787分钟 93.786分钟
每日圈数 15.353967 15.354108
详细信息
固有亮度:
5
最大亮度:
2.5
卫星平台:
Starlink v1.5
覆盖范围:
全球
运营商:
太空探索技术公司
运营商所在国:
美国
制造商(研发单位):
太空探索技术公司
制造商所在国:
美国
使用方式:
暂无
卫星简介
星链(Starlink)计划是由太空探索技术公司(SpaceX)提出的一个巨型低轨卫星互联网星座项目,计划在2019年至2024年间在太空搭建由约1.2万颗卫星组成的“星链”网络,其中1584颗将部署在地球上空550千米处的近地轨道,并从2020年开始工作。该卫星仍在工作。
2D轨道图
3D轨道图
轨道高度分析图
轨道倾角分析图
轨道综合分析图
查看轨道综合分析图
交会数据列表
事件ID 空间交会对象 最接近时刻(TCA) 交会距离 交会风险概率(CRP) 交会风险指数(CRI) 操作
CDM_260904-195503-803905-177122
2026-09-04T
19:55:59+0000
2.504 km
极远距离
1.72088E-6 低风险 0.4
CDM_260904-165802-597905-177124
2026-09-04T
16:58:32+0000
2.421 km
极远距离
1.657649E-6 低风险 0.39
CDM_260904-163205-177106-202122
2026-09-04T
16:32:35+0000
2.743 km
极远距离
1.347141E-6 低风险 0.38
CDM_260904-065805-177106-603022
2026-09-04T
06:58:42+0000
2.534 km
极远距离
1.330811E-6 低风险 0.37
CDM_260906-040705-177105-177221
2026-09-06T
04:07:26+0000
2.988 km
极远距离
2.230627E-7 极低风险 0.22